Regional Weather Roundup
Issued by NWS

Home | Current Version | Previous Version | Graphics & Text | Print | Product List | Glossary Off
Versions: 1 2 3 4 5 6 7 8 9 10 11 12 13 14 15 16 17 18 19 20 21 22 23 24 25 26 27 28 29 30 31 32 33 34 35 36 37 38 39 40 41 42 43 44 45 46 47 48 49 50

000
ASUS43 KDMX 191301
RWRIA

WEATHER ROUNDUP FOR IOWA
NATIONAL WEATHER SERVICE DES MOINES IA
700 AM CST SUN NOV 19 2017

NOTE: "FAIR" INDICATES FEW OR NO CLOUDS BELOW 12,000 FEET WITH NO
SIGNIFICANT WEATHER AND/OR OBSTRUCTIONS TO VISIBILITY.

* - THESE STATIONS ARE NOT NWS STATIONS...THUS NOT UNDER NWS
QUALITY CONTROL.  THEY ALSO DO NOT REPORT WEATHER SUCH
AS PRECIPITATION OR FOG.

IAZ001>003-012>014-020>022-031>034-043>046-191400-
   NORTHWEST IOWA

CITY           SKY/WX    TMP DP  RH WIND       PRES   REMARKS
CARROLL *      CLEAR     21  18  86 W8        30.16S WCI  12
DENISON *      CLEAR     21  18  86 CALM      30.17F
LE MARS *      CLEAR     21  18  86 S5        30.13F WCI  15
ORANGE CITY *  CLEAR     21  21 100 SW3       30.10F
SHELDON *      CLOUDY    18  16  93 SW6       30.09F WCI   9
SIOUX CITY     CLEAR     18  15  88 E6        30.16F WCI  10
SPENCER        CLOUDY    17  13  84 W3        30.11F
STORM LAKE *   CLEAR     19  16  86 W8        30.13S WCI   9
$$

IAZ055>058-069>071-079>083-090>094-191400-
   SOUTHWEST IOWA

CITY           SKY/WX    TMP DP  RH WIND       PRES   REMARKS
ATLANTIC *     CLEAR     21  19  93 CALM      30.19R
AUDUBON *      CLEAR     21  18  86 CALM      30.17R
CLARINDA *       N/A     23  21  93 CALM      30.23S
COUNCIL BLFS * CLEAR     25  25 100 SW6       30.19R WCI  18
CRESTON *      CLEAR     21  19  93 W8        30.19R WCI  12
HARLAN  *      CLEAR     19  19 100 CALM      30.21R
LAMONI         CLEAR     22  17  81 W6        30.19R WCI  14
RED OAK *      CLEAR     21  19  93 CALM      30.21R
SHENANDOAH *   CLEAR     21  19  93 CALM      30.23R
$$

IAZ047>049-059>061-072>074-084-191400-
   CENTRAL IOWA

CITY           SKY/WX    TMP DP  RH WIND       PRES   REMARKS
AMES           CLEAR     19  16  88 W6        30.16R WCI  11
ANKENY *       CLEAR     23  18  80 W3        30.18S
BOONE *        CLEAR     21  16  79 W8        30.15R WCI  12
CHARITON *     CLEAR     23  16  74 W6        30.17R WCI  16
DES MOINES     PTCLDY    22  15  75 W6        30.18R WCI  14
GRINNELL*      CLEAR     20  15  82 W8        30.15S WCI  10
KNOXVILLE *    CLEAR     21  12  68 NW6       30.15S WCI  14
MARSHALLTOWN   CLEAR     19  14  81 W8        30.13R WCI   9
NEWTON *       CLEAR     19  14  79 W7        30.16R WCI  10
PELLA *        CLEAR     23  15  73 NW9       30.18R WCI  13
$$

IAZ004>006-015-016-023>025-035-036-191400-
   NORTH CENTRAL IOWA

CITY           SKY/WX    TMP DP  RH WIND       PRES   REMARKS
ALGONA *       CLEAR     19  18  93 W8        30.12R WCI   9
CLARION *      CLEAR     16  16 100 W7        30.14R WCI   6
ESTHERVILLE    CLOUDY    19  16  88 W7        30.10S WCI  10
FORT DODGE *   CLEAR     18  15  88 CALM      30.15R
MASON CITY     CLEAR     14  10  84 W7        30.12R WCI   4
FOREST CITY *    N/A     18  14  86 W6        30.11R WCI   9
WEBSTER CITY * CLEAR     18  14  86 W9        30.13R WCI   6
IOWA FALLS *     N/A     19  15  86 W7        30.13R WCI   9
$$

IAZ007>011-017>019-026>030-037>042-050>054-066-191400-
   NORTHEAST IOWA

CITY           SKY/WX    TMP DP  RH WIND       PRES   REMARKS
CEDAR RAPIDS   CLEAR     18  13  80 NW10      30.11R WCI   6
CHARLES CITY * CLEAR     18  12  79 NW7       30.09S WCI   8
CLINTON *      CLEAR     21  17  84 NW13      30.08R WCI   9
DECORAH *      CLEAR     18  12  79 VRB5      30.05R WCI  11
DUBUQUE        PTCLDY    20  13  74 NW13      30.04S WCI   7
MONTICELLO *   CLEAR     19  14  79 NW10      30.08S WCI   8
OELWEIN *      CLEAR     18  16  93 W8        30.09R WCI   7
WATERLOO       CLEAR     18  11  74 W6        30.11R WCI  10
$$

IAZ064-065-067-068-078-191400-
   EAST CENTRAL IOWA

CITY           SKY/WX    TMP DP  RH WIND       PRES   REMARKS
DAVENPORT      CLEAR     21  15  78 W12       30.11R WCI   9
IOWA CITY      CLEAR     23  13  65 NW12      30.14R WCI  12
MT. PLEASANT * CLEAR     23  13  66 NW9G16    30.15R WCI  13
MUSCATINE *    CLEAR     23  14  68 NW13      30.14R WCI  11
QUAD CITIES    CLEAR     24  14  65 NW16      30.10R WCI  11
$$

IAZ062-063-075>077-085>089-095>099-191400-
   SOUTHEAST IOWA

CITY           SKY/WX    TMP DP  RH WIND       PRES   REMARKS
BURLINGTON     CLEAR     23  16  74 NW9       30.14R WCI  13
FAIRFIELD *    CLEAR     23  14  68 NW9       30.15R WCI  13
FORT MADISON * CLEAR     23  16  74 NW9       30.16R WCI  13
KEOKUK *       CLEAR     25  14  63 NW9G16    30.16S WCI  15
OSKALOOSA *      N/A     20  16  83 W8        30.16S WCI  10
OTTUMWA        CLEAR     22  14  71 W10       30.16S WCI  11
WASHINGTON *   CLEAR     21  16  79 NW12      30.15S WCI   9
$$

ABBREVIATIONS USED IN REMARKS
   TC - TEMPERATURES IN CELSIUS
  WCI - WIND CHILL INDEX
   HX - HEAT INDEX
  VSB - VISIBILITY
$$





USA.gov is the U.S. government's official web portal to all federal, state and local government web resources and services.